Regional Weather Roundup
Issued by NWS Sterling, VA

Home | Current Version | Previous Version | Graphics & Text | Print | Product List | Glossary On
Versions: 1 2 3 4 5 6 7 8 9 10 11 12 13 14 15 16 17 18 19 20 21 22 23 24 25 26 27 28 29 30 31 32 33 34 35 36 37 38 39 40 41 42 43 44 45 46 47 48 49 50
000
ASUS41 KLWX 270611
RWRLWX

REGIONAL WEATHER ROUNDUP
NATIONAL WEATHER SERVICE BALTIMORE MD/WASHINGTON DC
200 AM EDT MON MAR 27 2017

Note: "FAIR" indicates few or no clouds below 12,000 feet
with no significant weather and/or obstructions to visibility.
 TC=TEMPERATURE CELSIUS

 * =Non NWS site. Station does not report precipitation (e.g. rain,
    snow, etc.), thunder, or fog.

DCZ001-MDZ009-015-VAZ040>042-051-053>054-270700-
WASHINGTON METRO

CITY           SKY/WX    TMP DP  RH WIND       PRES   REMARKS
WASHINGTON NAT DRIZZLE   47  46  97 E5        30.17F FOG
DULLES         DRZL/FOG  45  44  97 SE5       30.15F VSB 3/4
ANDREWS AFB    MIX PCPN  45  45 100 E5        30.14F VSB 1/2
FT BELVOIR     CLOUDY    46  45  95 VRB3      30.15F FOG
QUANTICO       FOG       48  48 100 E5        30.17F VSB 3/4
COLLEGE PARK*  CLOUDY    43  43 100 E5        30.16F
LEESBURG*      FOG       46  46 100 SE6       30.15F VSB 3/4
MANASSAS*      CLOUDY    46  46 100 E6        30.16F FOG

$$

MDZ006>007-011-014-270700-
BALTIMORE METRO

CITY           SKY/WX    TMP DP  RH WIND       PRES   REMARKS
BWI AIRPORT    FOG       44  44 100 E9        30.17F VSB 1/2
MD SCIENCE CTR   N/A     45  43  93 MISG      30.18F
MARTIN STATE   CLOUDY    45  45 100 NE6       30.19F FOG
ANNAPOLIS      FOG       46  45  96 E5        30.17F VSB 1/2
FORT MEADE*    CLOUDY    43  43 100 E6        30.19F

$$

MDZ012-015-019>023-270700-
MARYLAND EASTERN SHORE

CITY           SKY/WX    TMP DP  RH WIND       PRES   REMARKS
OCEAN CITY     FOG       47  46  97 CALM      30.19F VSB 1/4
SALISBURY      FOG       48  48 100 NE3       30.18F VSB 1/4
BAY BRIDGE AP* FOG       45  45 100 E5        30.18F VSB 1/2
CAMBRIDGE*     FOG       46  46 100 E6        30.17F VSB 1/4
EASTON*        FOG       46  45  94 CALM      30.21F VSB 1/2

$$

MDZ017>025-270700-
SOUTHERN MARYLAND

CITY           SKY/WX    TMP DP  RH WIND       PRES   REMARKS
PATUXENT RIVER FOG       47  47 100 E3        30.17F VSB 1/4
ST INIGOES     FOG       48  48 100 NE5       30.15F VSB 1/2
LEONARDTOWN*   CLOUDY    45  45 100 E5        30.17F VSB 1/4

$$

MDZ003>005-270700-
NORTH CENTRAL MARYLAND

CITY           SKY/WX    TMP DP  RH WIND       PRES   REMARKS
FREDERICK*     LGT RAIN  46  46 100 CALM      30.18F
HAGERSTOWN APT LGT RAIN  46  45  96 CALM      30.13F
WESTMINSTER*   LGT RAIN  43  43 100 E5        30.14F

$$

MDZ501>502-270700-
WESTERN MARYLAND

CITY           SKY/WX    TMP DP  RH WIND       PRES   REMARKS
OAKLAND*       FOG       41  41 100 SE12G21   30.04R VSB 1/2
CUMBERLAND*    CLOUDY    46  46 100 CALM      30.12F

$$

VAZ025>031-270700-
SHENANDOAH VALLEY

CITY           SKY/WX    TMP DP  RH WIND       PRES   REMARKS
WINCHESTER*    CLOUDY    45  45 100 E6        30.11F
FRONT ROYAL*   CLOUDY    46  46 100 CALM      30.09F
LURAY*         CLOUDY    50  50 100 CALM      30.09F
NEW MARKET*    CLOUDY    47  46  96 CALM      30.10F
STAUNTON*      CLOUDY    50  49  96 SW3       30.12F
WAYNESBORO*    CLOUDY    48  48 100 SE5       30.10F

$$

WVZ021-048>050-054>055-270700-
EASTERN WEST VIRGINIA PANHANDLE

CITY           SKY/WX    TMP DP  RH WIND       PRES   REMARKS
MARTINSBURG    CLOUDY    46  44  93 CALM      30.12F FOG
PETERSBURG*    CLOUDY    48  47  95 NW3       30.09F

$$

VAZ036>039-050-270700-
CENTRAL FOOTHILLS

CITY           SKY/WX    TMP DP  RH WIND       PRES   REMARKS
CHARLOTTESVILL LGT RAIN  50  49  96 N3        30.14F FOG
CULPEPER*      FOG       49  49 100 CALM      30.16F VSB 3/4
ORANGE*        RAIN      46  46 100 CALM      30.16F VSB 1/2
GORDONSVILLE*  CLOUDY    49  49 100 CALM      30.14F FOG
WARRENTON*     FOG       48  46  90 CALM      30.14F VSB 1/2

$$

VAZ055>057-270700-
NORTH AND CENTRAL PIEDMONT

CITY           SKY/WX    TMP DP  RH WIND       PRES   REMARKS
FREDERICKSBRG* FOG       49  49 100 CALM      30.15F VSB 1/2
STAFFORD*      FOG       47  47 100 E6        30.19F VSB 1/2

$$

NCZ024-NYZ072-PAZ021-071-VAZ022-071-270700-
OTHER REGIONAL OBSERVATIONS

CITY           SKY/WX    TMP DP  RH WIND       PRES   REMARKS
NEW YORK CITY  CLOUDY    38  37  97 E9        30.28F FOG
PHILADELPHIA   CLOUDY    42  40  92 E8        30.21F FOG
PITTSBURGH     LGT RAIN  53  53 100 CALM      29.95S FOG
ROANOKE        CLOUDY    55  55 100 SE7       30.13F
RICHMOND       MOCLDY    51  51 100 E3        30.13F
RALEIGH        PTCLDY    64  53  67 S10       30.13F

$$

ANZ530>537-270700-
MARINE OBSERVATIONS

STATION/POSITION TIME  TEMP    WIND        PRES
                       AIR SEA DIR/SP/G
                 (UTC) (F)     (DEG/KT/KT) (MB)
THOMAS PT LIGHT  0600   44 45   80/  6/  6   N/A
BALT KEY BRIDGE  0548   44      90/  8/  9 1022.0F
COVE POINT       0548   46     140/  2/  3 1022.3F
LEWISETTA        0548   47 50  120/  9/ 11 1021.0F
SOLOMONS ISLAND  0542   46 47   70/  5/  5   N/A
PINEY POINT      0548          130/  8/  9   N/A

$$




USA.gov is the U.S. government's official web portal to all federal, state and local government web resources and services.